Location: Claflin County Park
(44.8478°N, 87.5507°W)
Time: 07:33:57
(UTC+00:00)

USA 234 - Pass Details

Date: 13 March 2026
Orbit: 1102 x 1106 km, 123.0° (Epoch: 4 January)

Event Time Altitude Azimuth Distance (km) Brightness Sun altitude
Exits shadow 01:40:53 23° 67° (ENE) 2,151 4.4 -19.8°
Maximum altitude 01:44:14 38° 17° (NNE) 1,625 4.1 -20.4°
Drops below altitude 10° 01:50:10 10° 313° (NW) 2,970 6.5 -21.4°
Sets 01:52:49 0° 306° (NW) 3,930 7.5 -21.8°
